Davenport, IA

12:47 AM CDT on October 18, 2017 (GMT -0500)
Davenport Municipal

Weather History for KDVN - November, 2010

Change the Weather History Date:

Sunday, November 28, 2010

  Actual Average Record
Temperature  
Mean Temperature 37 °F 32 °F  
Max Temperature 51 °F 41 °F 64 °F (2006)
Min Temperature 22 °F 24 °F 4 °F (1976)
Degree Days  
Heating Degree Days 28 33  
Month to date heating degree days 677 720  
Since 1 July heating degree days 1109 1280  
Cooling Degree Days 0 0  
Month to date cooling degree days 0 0  
Year to date cooling degree days 1059 786  
Moisture  
Dew Point 28 °F    
Average Humidity 67    
Maximum Humidity 88    
Minimum Humidity 46    
Precipitation  
Precipitation 0.00 in 0.07 in 0.96 in (1964)
Month to date precipitation 0.93 2.30  
Year to date precipitation 41.10 34.15  
Snow  
Snow 0.00 in - - ()
Month to date snowfall 0.0  
Since 1 July snowfall 0.0  
Since 1 September snowfall 0.0  
Snow Depth 0.00 in    
Sea Level Pressure  
Sea Level Pressure 30.04 in    
Wind  
Wind Speed 16 mph (SSE)    
Max Wind Speed 30 mph    
Max Gust Speed 39 mph    
Visibility 10 miles    
Events      
T = Trace of Precipitation, MM = Missing Value Source: NWS Daily Summary

Daily Weather History Graph

Daily Weather History Graph

Search for Another Location

Airport or City:

Trip Planner

Search our weather history database for the weather conditions in past years. The results will help you decide how hot, cold, wet, or windy it might be!

Date:

Astronomy

Nov. 28, 2010 Rise Set
Actual Time 7:06 AM CST 4:34 PM CST
Civil Twilight 6:35 AM CST 5:04 PM CST
Nautical Twilight 6:01 AM CST 5:39 PM CST
Astronomical Twilight 5:28 AM CST 6:12 PM CST
Moon No Moon Rise 12:11 PM CST (11/28)
Length of Visible Light 10h 29m
Length of Day
9h 27m
Waning Gibbous, 51% of the Moon is Illuminated
Nov 28
Waning Gibbous
Nov 28
Last Quarter
Dec 5
New
Dec 13
First Quarter
Dec 21
Full

Hourly Weather History & Observations

Time (CST) Temp. Windchill Dew Point Humidity Pressure Visibility Wind Dir Wind Speed Gust Speed Precip Events Conditions
12:52 AM 21.9 °F 13.4 °F 17.1 °F 82% 30.15 in 10.0 mi SSE 6.9 mph - N/A   Clear
1:52 AM 25.0 °F 15.5 °F 19.0 °F 78% 30.15 in 10.0 mi SE 9.2 mph - N/A   Clear
2:52 AM 26.1 °F 16.8 °F 21.0 °F 81% 30.14 in 10.0 mi SE 9.2 mph - N/A   Clear
3:52 AM 25.0 °F 16.3 °F 21.0 °F 85% 30.13 in 10.0 mi SE 8.1 mph - N/A   Clear
4:52 AM 28.9 °F 19.8 °F 24.1 °F 82% 30.13 in 10.0 mi SSE 10.4 mph - N/A   Clear
5:52 AM 28.9 °F 19.8 °F 24.1 °F 82% 30.14 in 9.0 mi SSE 10.4 mph - N/A   Clear
6:52 AM 28.0 °F 18.6 °F 23.0 °F 81% 30.14 in 8.0 mi SSE 10.4 mph - N/A   Clear
7:52 AM 30.9 °F 21.2 °F 26.1 °F 82% 30.14 in 7.0 mi SSE 12.7 mph - N/A   Clear
8:52 AM 34.0 °F 25.5 °F 27.0 °F 75% 30.14 in 8.0 mi SSE 11.5 mph - N/A   Clear
9:52 AM 39.0 °F 31.4 °F 30.0 °F 70% 30.13 in 9.0 mi SSE 12.7 mph - N/A   Clear
10:52 AM 44.1 °F 37.1 °F 30.0 °F 58% 30.09 in 10.0 mi SSE 15.0 mph - N/A   Clear
11:52 AM 46.9 °F - 30.0 °F 52% 30.05 in 10.0 mi SSE 16.1 mph - N/A   Clear
12:52 PM 48.9 °F - 30.0 °F 48% 30.02 in 10.0 mi SSE 18.4 mph - N/A   Clear
1:52 PM 50.0 °F - 30.0 °F 46% 30.00 in 10.0 mi SSE 19.6 mph 25.3 mph N/A   Clear
2:52 PM 50.0 °F - 30.0 °F 46% 29.97 in 10.0 mi SSE 20.7 mph - N/A   Clear
3:52 PM 46.9 °F - 30.0 °F 52% 29.96 in 10.0 mi SSE 16.1 mph - N/A   Clear
4:52 PM 44.1 °F 36.5 °F 32.0 °F 63% 29.94 in 10.0 mi SE 17.3 mph 24.2 mph N/A   Clear
5:52 PM 43.0 °F 34.2 °F 33.1 °F 68% 29.94 in 10.0 mi SSE 20.7 mph 28.8 mph N/A   Clear
6:52 PM 42.1 °F 32.8 °F 33.1 °F 70% 29.94 in 10.0 mi SSE 21.9 mph 31.1 mph N/A   Clear
7:52 PM 41.0 °F 30.7 °F 32.0 °F 70% 29.93 in 10.0 mi SSE 25.3 mph 35.7 mph N/A   Clear
8:52 PM 41.0 °F 30.7 °F 30.9 °F 67% 29.93 in 10.0 mi SSE 25.3 mph 33.4 mph N/A   Clear
9:52 PM 39.9 °F 29.5 °F 30.9 °F 70% 29.93 in 10.0 mi SSE 24.2 mph 33.4 mph N/A   Clear
10:52 PM 39.0 °F 29.9 °F 30.0 °F 70% 29.94 in 10.0 mi SSE 17.3 mph 26.5 mph N/A   Clear
11:52 PM 39.0 °F 28.5 °F 30.0 °F 70% 29.94 in 10.0 mi SSE 23.0 mph 28.8 mph N/A   Clear